Regional Weather Roundup
Issued by NWS

Home | Current Version | Previous Version | Graphics & Text | Print | Product List | Glossary On
Versions: 1 2 3 4 5 6 7 8 9 10 11 12 13 14 15 16 17 18 19 20 21 22 23 24 25 26 27
000
ASUS45 KBOU 251010
RWRCO

WEATHER ROUNDUP FOR COLORADO
NATIONAL WEATHER SERVICE DENVER/BOULDER CO
400 AM MDT SUN SEP 25 2016

NOTE: "FAIR" INDICATES FEW OR NO CLOUDS BELOW 12000 FEET WITH NO
SIGNIFICANT WEATHER AND/OR OBSTRUCTIONS TO VISIBILITY.

COZ001>005-013-030-031-251100-
...NORTHWEST COLORADO...

CITY           SKY/WX    TMP DP  RH WIND       PRES   REMARKS
CRAIG          FOG       39  37  92 SW3       30.46R VSB 1/4
HAYDEN         FAIR      37  34  87 CALM      30.46R
MEEKER         FAIR      37  36  96 CALM      30.46R
MOUNT WERNER   NOT AVBL
STEAMBOAT SPGS CLOUDY    39  38  98 CALM      30.46R
WALDEN           N/A     36  34  93 CALM      30.48S
$$

COZ006>008-011-251100-
...WEST CENTRAL VALLEYS...

CITY           SKY/WX    TMP DP  RH WIND       PRES   REMARKS
GRAND JUNCTION FAIR      44  40  85 NW5       30.39R
MONTROSE       FAIR      44  40  85 SE5       30.43R
EAGLE          MOCLDY    41  39  93 SE3       30.48R
RIFLE          FAIR      43  42  97 CALM      30.42S
DELTA          FAIR      45  41  84 N5        30.39F
NUCLA          FAIR      45  36  70 CALM      30.42S
$$

COZ017>023-064>068-251100-
...SOUTHWEST COLORADO...

CITY           SKY/WX    TMP DP  RH WIND       PRES   REMARKS
DURANGO        FAIR      36  30  79 N6        30.32S
CORTEZ         FAIR      37  33  85 NE6       30.32R
PAGOSA SPRINGS FAIR      37  28  71 W3        30.38R
TELLURIDE      FAIR      34  31  87 CALM      30.47S
WOLF CREEK PAS FAIR      27  23  86 MISG      30.56R
$$

COZ009-010-012-014-032>034-037-058>063-251100-
...CENTRAL COLORADO...

CITY           SKY/WX    TMP DP  RH WIND       PRES   REMARKS
ASPEN          CLOUDY    39  37  92 CALM      30.46S
BUENA VISTA    FAIR      34  26  70 CALM      30.45R
COPPER MTN     HAZE      32  28  86 MISG      30.55S VSB 1
BERTHOUD PASS  CLOUDY    21   9  58 NW9       30.55R WCI  11
COTTONWOOD PAS FAIR      39  23  52 CALM      30.50R
GUNNISON       FAIR      33  31  92 N3        30.46S
KREMMLING      CLOUDY    39  34  81 CALM      30.47S
LEADVILLE      FAIR      30  27  88 NW6       30.48S WCI  24
MONARCH PASS   FAIR      28  23  80 E15       30.64R WCI  17
SALIDA         FAIR      37  28  72 W6        30.52R
SUNLIGHT       CLOUDY    32  32 100 MISG      30.56F
WILKERSON PASS MOCLDY    32  23  69 E5        30.55S WCI  27
$$

COZ069>075-251100-
...SAN LUIS VALLEY/SANGRE DE CRISTO MOUNTAINS...

CITY           SKY/WX    TMP DP  RH WIND       PRES   REMARKS
ALAMOSA        FAIR      32  28  85 E5        30.41R WCI  27
LA VETA PASS   FAIR      32  27  80 MISG      30.49S
SAGUACHE       NOT AVBL
$$

COZ035-036-038>040-251100-
...NORTHERN COLORADO FRONT RANGE...

CITY           SKY/WX    TMP DP  RH WIND       PRES   REMARKS
DENVER INTL AP MOCLDY    43  32  65 S8        30.37R
DMNS CITY PARK NOT AVBL
AURORA         MOCLDY    45  34  66 SE8       30.38R
FRONT RANGE AP FAIR      41  32  70 CALM      30.38R
ERIE MUNI ARPT FAIR      49  35  58 SE6       30.36R
BOULDER MUN AP MOCLDY    50  34  53 CALM      30.35S
CENTENNIAL     MOCLDY    43  32  65 S7        30.39R
BROOMFIELD     CLOUDY    50  36  57 S3        30.38R
FORT COLLINS   CLOUDY    52  34  50 NW7       30.35R
LONGMONT       MOCLDY    52  38  58 S5        30.37R
$$

COZ041-046-047-076>085-087-088-251100-
...PIKES PEAK/PALMER DIVIDE AND SOUTHERN FOOTHILLS...

CITY           SKY/WX    TMP DP  RH WIND       PRES   REMARKS
COLO. SPRINGS  MOCLDY    48  33  56 NW13      30.41R
A. F. ACADEMY  CLOUDY    42  31  65 N7        30.41R
SCHRIEVER AFB  NOT AVBL
ELLICOTT       NOT AVBL
FALCON         CLOUDY    44  32  63 N12       30.42R
FORT CARSON    CLOUDY    49  32  53 N16       30.36S
LIMON          CLOUDY    47  36  65 NW16      30.35S
MONUMENT HILL  FAIR      34  30  86 SW3       30.44R
TRINIDAD       FAIR      44  29  55 W7        30.39R
$$

COZ042>045-048>051-090-091-251100-
...NORTHEAST COLORADO...

CITY           SKY/WX    TMP DP  RH WIND       PRES   REMARKS
GREELEY ARPT   CLOUDY    52  36  54 N13       30.35R
AKRON          CLOUDY    44  35  70 W10       30.34R
BURLINGTON     FAIR      46  39  76 NW10      30.31R
WRAY           FAIR      50  37  62 NW12      30.28R
STERLING       FAIR      37  34  87 SW3       30.32R
HOLYOKE        FAIR      46  37  71 W8        30.29R
FORT MORGAN    FAIR      42  34  72 NW9       30.35S
$$

COZ086-089-092>099-251100-
...SOUTHEAST COLORADO...

CITY           SKY/WX    TMP DP  RH WIND       PRES   REMARKS
PUEBLO         CLOUDY    55  35  47 N9        30.35R
LA JUNTA       FAIR      51  36  56 W6        30.33R
LAMAR          FAIR      53  39  59 NE3       30.27R
SPRINGFIELD    NOT AVBL
$$




USA.gov is the U.S. government's official web portal to all federal, state and local government web resources and services.